{"data":{"norad_id":39073,"epoch":"2026-05-24T20:32:34.423872Z","epoch_age_seconds":101567,"freshness":"FRESH","line1":"1 39073U 13005B   26144.85595398 -.00000084  00000+0  10933-3 0  9991","line2":"2 39073  52.0115 307.6952 0000485  97.9847 262.1075 12.62265217613918","mean_motion":12.62265217,"eccentricity":4.85e-5,"inclination_deg":52.0115,"raan_deg":307.6952,"arg_perigee_deg":97.9847,"mean_anomaly_deg":262.1075,"bstar":0.00010933,"rev_number":61391,"period_min":114.08062114097,"perigee_km":1413.2307052192,"apogee_km":1413.9865045429,"semimajor_km":7791.745604881,"source":"CELESTRAK","updated_at":"2026-05-25T13:38:23.046323Z"}}